• In Kazakhstan
  • List of Countries
  • For 7 days
  • Water Temperature
  • Satellite Maps
  • Weather Map
  • News
  • Weather Widgets
  • user-avatar
    Login

    Hourly Weather Perth

    Today, 22 November, Wednesday

    Time Temperature Precipitation Wind Pressure Humidity
    00:00 +19°C° 0 mm 6 mps 762 mmHg 41%
    01:00 +17°C° 0 mm 6 mps 762 mmHg 44%
    02:00 +16°C° 0 mm 7 mps 763 mmHg 48%
    03:00 +16°C° 0 mm 6 mps 763 mmHg 50%
    04:00 +15°C° 0 mm 6 mps 763 mmHg 52%
    05:00 +14°C° 0 mm 6 mps 763 mmHg 54%
    06:00 +16°C° 0 mm 6 mps 763 mmHg 49%
    07:00 +17°C° 0 mm 6 mps 763 mmHg 45%
    08:00 +19°C° 0 mm 6 mps 764 mmHg 41%
    09:00 +21°C° 0 mm 6 mps 763 mmHg 35%
    10:00 +23°C° 0 mm 5 mps 763 mmHg 29%
    11:00 +26°C° 0 mm 4 mps 763 mmHg 24%
    12:00 +28°C° 0 mm 4 mps 762 mmHg 21%
    13:00 +29°C° 0 mm 4 mps 761 mmHg 19%
    14:00 +30°C° 0 mm 4 mps 761 mmHg 18%
    15:00 +30°C° 0 mm 4 mps 760 mmHg 19%
    16:00 +30°C° 0 mm 4 mps 760 mmHg 19%
    17:00 +30°C° 0 mm 5 mps 760 mmHg 20%
    18:00 +28°C° 0 mm 4 mps 760 mmHg 25%
    19:00 +25°C° 0 mm 4 mps 760 mmHg 29%
    20:00 +23°C° 0 mm 4 mps 760 mmHg 29%
    21:00 +22°C° 0 mm 4 mps 761 mmHg 29%
    22:00 +22°C° 0 mm 4 mps 761 mmHg 29%
    23:00 +22°C° 0 mm 4 mps 761 mmHg 29%

    Tomorrow, 23 November, Thursday

    Time Temperature Precipitation Wind Pressure Humidity
    00:00 +21°C° 0 mm 5 mps 761 mmHg 34%
    01:00 +20°C° 0 mm 6 mps 761 mmHg 39%
    02:00 +19°C° 0 mm 6 mps 761 mmHg 44%
    03:00 +19°C° 0 mm 6 mps 761 mmHg 47%
    04:00 +17°C° 0 mm 6 mps 761 mmHg 49%
    05:00 +16°C° 0 mm 6 mps 761 mmHg 52%
    06:00 +19°C° 0 mm 6 mps 761 mmHg 49%
    07:00 +20°C° 0 mm 6 mps 761 mmHg 45%
    08:00 +22°C° 0 mm 6 mps 761 mmHg 41%
    09:00 +25°C° 0 mm 5 mps 761 mmHg 35%
    10:00 +28°C° 0 mm 4 mps 761 mmHg 29%
    11:00 +30°C° 0 mm 3 mps 760 mmHg 24%
    12:00 +33°C° 0 mm 3 mps 760 mmHg 21%
    13:00 +34°C° 0 mm 3 mps 759 mmHg 19%
    14:00 +35°C° 0 mm 3 mps 758 mmHg 17%
    15:00 +34°C° 0 mm 4 mps 758 mmHg 19%
    16:00 +33°C° 0 mm 4 mps 758 mmHg 21%
    17:00 +33°C° 0 mm 5 mps 757 mmHg 23%
    18:00 +29°C° 0 mm 5 mps 758 mmHg 28%
    19:00 +27°C° 0 mm 5 mps 758 mmHg 33%
    20:00 +25°C° 0 mm 5 mps 758 mmHg 39%
    21:00 +23°C° 0 mm 4 mps 758 mmHg 39%
    22:00 +22°C° 0 mm 4 mps 758 mmHg 40%
    23:00 +22°C° 0 mm 4 mps 758 mmHg 40%

    Day after tomorrow, 24 November, Friday

    Time Temperature Precipitation Wind Pressure Humidity
    00:00 +21°C° 0 mm 4 mps 758 mmHg 36%
    01:00 +21°C° 0 mm 4 mps 757 mmHg 33%
    02:00 +21°C° 0 mm 4 mps 757 mmHg 29%
    03:00 +21°C° 0 mm 4 mps 757 mmHg 32%
    04:00 +21°C° 0 mm 3 mps 756 mmHg 35%
    05:00 +20°C° 0 mm 3 mps 756 mmHg 38%
    06:00 +22°C° 0 mm 3 mps 757 mmHg 35%
    07:00 +25°C° 0 mm 3 mps 757 mmHg 32%
    08:00 +27°C° 0 mm 3 mps 757 mmHg 30%
    09:00 +29°C° 0 mm 3 mps 757 mmHg 26%
    10:00 +33°C° 0 mm 3 mps 756 mmHg 23%
    11:00 +35°C° 0 mm 3 mps 756 mmHg 19%
    12:00 +36°C° 0 mm 3 mps 755 mmHg 19%
    13:00 +36°C° 0 mm 4 mps 755 mmHg 19%
    14:00 +36°C° 0 mm 5 mps 754 mmHg 19%
    15:00 +35°C° 0 mm 5 mps 754 mmHg 21%
    16:00 +34°C° 0 mm 6 mps 754 mmHg 23%
    17:00 +33°C° 0 mm 6 mps 754 mmHg 26%
    18:00 +30°C° 0 mm 6 mps 754 mmHg 32%
    19:00 +28°C° 0 mm 6 mps 754 mmHg 38%
    20:00 +26°C° 0 mm 6 mps 754 mmHg 44%
    21:00 +24°C° 0 mm 6 mps 755 mmHg 47%
    22:00 +23°C° 0 mm 6 mps 755 mmHg 50%
    23:00 +23°C° 0 mm 6 mps 755 mmHg 52%

    25 November, Saturday

    Time Temperature Precipitation Wind Pressure Humidity
    00:00 +22°C° 0 mm 6 mps 755 mmHg 57%
    01:00 +21°C° 0 mm 5 mps 755 mmHg 63%
    02:00 +20°C° 0 mm 5 mps 755 mmHg 68%
    03:00 +20°C° 0 mm 5 mps 755 mmHg 69%
    04:00 +19°C° 0 mm 5 mps 755 mmHg 71%
    05:00 +17°C° 0 mm 5 mps 755 mmHg 73%
    06:00 +20°C° 0 mm 5 mps 756 mmHg 66%
    07:00 +21°C° 0 mm 6 mps 756 mmHg 59%
    08:00 +23°C° 0 mm 6 mps 757 mmHg 52%
    09:00 +26°C° 0 mm 6 mps 757 mmHg 45%
    10:00 +28°C° 0 mm 6 mps 756 mmHg 39%
    11:00 +32°C° 0 mm 6 mps 756 mmHg 32%
    12:00 +33°C° 0 mm 6 mps 756 mmHg 30%
    13:00 +34°C° 0 mm 6 mps 755 mmHg 27%
    14:00 +35°C° 0 mm 6 mps 755 mmHg 25%
    15:00 +34°C° 0 mm 7 mps 755 mmHg 28%
    16:00 +33°C° 0 mm 7 mps 754 mmHg 31%
    17:00 +33°C° 0 mm 7 mps 754 mmHg 33%
    18:00 +30°C° 0 mm 7 mps 755 mmHg 39%
    19:00 +28°C° 0 mm 6 mps 755 mmHg 44%
    20:00 +26°C° 0 mm 6 mps 756 mmHg 49%
    21:00 +24°C° 0 mm 6 mps 756 mmHg 51%
    22:00 +24°C° 0 mm 6 mps 757 mmHg 53%
    23:00 +23°C° 0 mm 6 mps 757 mmHg 55%

    26 November, Sunday

    Time Temperature Precipitation Wind Pressure Humidity
    00:00 +22°C° 0 mm 6 mps 757 mmHg 59%
    01:00 +21°C° 0 mm 6 mps 756 mmHg 62%
    02:00 +20°C° 0 mm 6 mps 756 mmHg 65%
    03:00 +20°C° 0 mm 6 mps 756 mmHg 66%
    04:00 +19°C° 0 mm 6 mps 756 mmHg 68%
    05:00 +19°C° 0 mm 6 mps 757 mmHg 69%
    06:00 +20°C° 0 mm 6 mps 757 mmHg 63%
    07:00 +21°C° 0 mm 6 mps 757 mmHg 57%
    08:00 +23°C° 0 mm 6 mps 757 mmHg 52%
    09:00 +26°C° 0 mm 5 mps 757 mmHg 45%
    10:00 +29°C° 0 mm 5 mps 756 mmHg 39%
    11:00 +32°C° 0 mm 5 mps 756 mmHg 32%
    12:00 +34°C° 0 mm 4 mps 755 mmHg 30%
    13:00 +35°C° 0 mm 4 mps 754 mmHg 28%
    14:00 +36°C° 0 mm 4 mps 753 mmHg 26%
    15:00 +36°C° 0 mm 5 mps 752 mmHg 28%
    16:00 +36°C° 0 mm 5 mps 752 mmHg 29%
    17:00 +35°C° 0 mm 6 mps 751 mmHg 30%
    18:00 +33°C° 0 mm 5 mps 751 mmHg 34%
    19:00 +30°C° 0 mm 5 mps 751 mmHg 39%
    20:00 +28°C° 0 mm 5 mps 751 mmHg 43%
    21:00 +28°C° 0 mm 6 mps 751 mmHg 46%
    22:00 +27°C° 0 mm 6 mps 751 mmHg 48%
    23:00 +26°C° 0 mm 7 mps 751 mmHg 51%

    27 November, Monday

    Time Temperature Precipitation Wind Pressure Humidity
    00:00 +24°C° 0.1 mm 7 mps 751 mmHg 56%
    01:00 +23°C° 0.1 mm 7 mps 751 mmHg 60%
    02:00 +22°C° 0.1 mm 6 mps 750 mmHg 64%
    03:00 +21°C° 0.1 mm 6 mps 750 mmHg 68%
    04:00 +21°C° 0.1 mm 5 mps 750 mmHg 71%
    05:00 +20°C° 0.1 mm 5 mps 750 mmHg 75%
    06:00 +21°C° 0 mm 4 mps 750 mmHg 69%
    07:00 +23°C° 0 mm 4 mps 750 mmHg 64%
    08:00 +26°C° 0 mm 3 mps 750 mmHg 58%
    09:00 +27°C° 0 mm 3 mps 750 mmHg 53%
    10:00 +29°C° 0 mm 4 mps 750 mmHg 48%
    11:00 +30°C° 0 mm 4 mps 749 mmHg 44%
    12:00 +32°C° 0 mm 4 mps 749 mmHg 44%
    13:00 +32°C° 0 mm 5 mps 749 mmHg 44%
    14:00 +32°C° 0 mm 5 mps 748 mmHg 44%
    15:00 +32°C° 0 mm 5 mps 748 mmHg 47%
    16:00 +30°C° 0 mm 5 mps 748 mmHg 49%
    17:00 +29°C° 0 mm 5 mps 749 mmHg 51%
    18:00 +28°C° 0.3 mm 5 mps 749 mmHg 59%
    19:00 +26°C° 0.3 mm 5 mps 749 mmHg 67%
    20:00 +23°C° 0.3 mm 4 mps 750 mmHg 74%
    21:00 +23°C° 0 mm 4 mps 750 mmHg 77%
    22:00 +22°C° 0 mm 4 mps 751 mmHg 80%
    23:00 +22°C° 0 mm 4 mps 751 mmHg 82%
    Show more